Location: Boiro
(42.6475°N, 8.8834°W)
Time: 17:48:32
(UTC+01:00)

Explorer 7 - Pass Details

Date: 02 December 2021
Orbit: 483 x 674 km, 50.3° (Epoch: 26 January)

Event Time Altitude Azimuth Distance (km) Brightness Sun altitude
Rises 09:24:03 0° 266° (W) 2,763 9.9 4.9°
Reaches altitude 10° 09:26:31 10° 275° (W) 1,832 9.0 5.2°
Maximum altitude 09:30:22 36° 343° (NNW) 853 7.5 5.8°
Drops below altitude 10° 09:34:02 10° 51° (NE) 1,738 9.6 6.3°
Sets 09:36:18 0° 60° (ENE) 2,601 10.6 6.7°
